Year,Month,Day,Hour,Minute,Value (Times are PST for temperature in C)
2010,08,14,00,00,18.80
2010,08,14,00,01,18.80
2010,08,14,00,02,18.80
2010,08,14,00,03,18.70
2010,08,14,00,04,18.70
2010,08,14,00,05,18.60
2010,08,14,00,06,18.60
2010,08,14,00,07,18.60
2010,08,14,00,08,18.60
2010,08,14,00,09,18.60
2010,08,14,00,10,18.60
2010,08,14,00,11,18.70
2010,08,14,00,12,18.70
2010,08,14,00,13,18.70
2010,08,14,00,14,18.70
2010,08,14,00,15,18.70
2010,08,14,00,16,18.80
2010,08,14,00,17,18.80
2010,08,14,00,18,18.80
2010,08,14,00,19,18.80
2010,08,14,00,20,18.80
2010,08,14,00,21,18.90
2010,08,14,00,22,18.90
2010,08,14,00,23,18.90
2010,08,14,00,24,18.90
2010,08,14,00,25,18.90
2010,08,14,00,26,18.90
2010,08,14,00,27,18.90
2010,08,14,00,28,18.90
2010,08,14,00,29,18.90
2010,08,14,00,30,18.90
2010,08,14,00,31,18.90
2010,08,14,00,32,18.80
2010,08,14,00,33,18.80
2010,08,14,00,34,18.80
2010,08,14,00,35,18.80
2010,08,14,00,36,18.70
2010,08,14,00,37,18.70
2010,08,14,00,38,18.70
2010,08,14,00,39,18.70
2010,08,14,00,40,18.70
2010,08,14,00,41,18.70
2010,08,14,00,42,18.70
2010,08,14,00,43,18.70
2010,08,14,00,44,18.70
2010,08,14,00,45,18.70
2010,08,14,00,46,18.70
2010,08,14,00,47,18.70
2010,08,14,00,48,18.60
2010,08,14,00,49,18.60
2010,08,14,00,50,18.60
2010,08,14,00,51,18.60
2010,08,14,00,52,18.50
2010,08,14,00,53,18.50
2010,08,14,00,54,18.50
2010,08,14,00,55,18.40
2010,08,14,00,56,18.40
2010,08,14,00,57,18.40
2010,08,14,00,58,18.40
2010,08,14,00,59,18.30
2010,08,14,01,00,18.30
2010,08,14,01,01,18.30
2010,08,14,01,02,18.30
2010,08,14,01,03,18.30
2010,08,14,01,04,18.30
2010,08,14,01,05,18.30
2010,08,14,01,06,18.30
2010,08,14,01,07,18.30
2010,08,14,01,08,18.30
2010,08,14,01,09,18.30
2010,08,14,01,10,18.40
2010,08,14,01,11,18.40
2010,08,14,01,12,18.30
2010,08,14,01,13,18.40
2010,08,14,01,14,18.40
2010,08,14,01,15,18.40
2010,08,14,01,16,18.40
2010,08,14,01,17,18.40
2010,08,14,01,18,18.40
2010,08,14,01,19,18.50
2010,08,14,01,20,18.50
2010,08,14,01,21,18.50
2010,08,14,01,22,18.50
2010,08,14,01,23,18.60
2010,08,14,01,24,18.50
2010,08,14,01,25,18.50
2010,08,14,01,26,18.50
2010,08,14,01,27,18.50
2010,08,14,01,28,18.40
2010,08,14,01,29,18.40
2010,08,14,01,30,18.40
2010,08,14,01,31,18.40
2010,08,14,01,32,18.40
2010,08,14,01,33,18.30
2010,08,14,01,34,18.30
2010,08,14,01,35,18.30
2010,08,14,01,36,18.30
2010,08,14,01,37,18.20
2010,08,14,01,38,18.20
2010,08,14,01,39,18.20
2010,08,14,01,40,18.20
2010,08,14,01,41,18.20
2010,08,14,01,42,18.20
2010,08,14,01,43,18.20
2010,08,14,01,44,18.20
2010,08,14,01,45,18.20
2010,08,14,01,46,18.20
2010,08,14,01,47,18.10
2010,08,14,01,48,18.10
2010,08,14,01,49,18.00
2010,08,14,01,50,18.00
2010,08,14,01,51,17.90
2010,08,14,01,52,17.90
2010,08,14,01,53,17.80
2010,08,14,01,54,17.80
2010,08,14,01,55,17.70
2010,08,14,01,56,17.70
2010,08,14,01,57,17.60
2010,08,14,01,58,17.60
2010,08,14,01,59,17.60
2010,08,14,02,00,17.50
2010,08,14,02,01,17.50
2010,08,14,02,02,17.40
2010,08,14,02,03,17.40
2010,08,14,02,04,17.30
2010,08,14,02,05,17.30
2010,08,14,02,06,17.30
2010,08,14,02,07,17.20
2010,08,14,02,08,17.20
2010,08,14,02,09,17.20
2010,08,14,02,10,17.10
2010,08,14,02,11,17.10
2010,08,14,02,12,17.00
2010,08,14,02,13,17.00
2010,08,14,02,14,16.90
2010,08,14,02,15,16.90
2010,08,14,02,16,16.90
2010,08,14,02,17,16.80
2010,08,14,02,18,16.80
2010,08,14,02,19,16.80
2010,08,14,02,20,16.80
2010,08,14,02,21,16.80
2010,08,14,02,22,16.70
2010,08,14,02,23,16.70
2010,08,14,02,24,16.70
2010,08,14,02,25,16.70
2010,08,14,02,26,16.70
2010,08,14,02,27,16.70
2010,08,14,02,28,16.60
2010,08,14,02,29,16.60
2010,08,14,02,30,16.60
2010,08,14,02,31,16.60
2010,08,14,02,32,16.50
2010,08,14,02,33,16.50
2010,08,14,02,34,16.50
2010,08,14,02,35,16.40
2010,08,14,02,36,16.40
2010,08,14,02,37,16.40
2010,08,14,02,38,16.40
2010,08,14,02,39,16.40
2010,08,14,02,40,16.40
2010,08,14,02,41,16.40
2010,08,14,02,42,16.40
2010,08,14,02,43,16.40
2010,08,14,02,44,16.40
2010,08,14,02,45,16.30
2010,08,14,02,46,16.30
2010,08,14,02,47,16.30
2010,08,14,02,48,16.30
2010,08,14,02,49,16.30
2010,08,14,02,50,16.30
2010,08,14,02,51,16.30
2010,08,14,02,52,16.30
2010,08,14,02,53,16.30
2010,08,14,02,54,16.30
2010,08,14,02,55,16.20
2010,08,14,02,56,16.20
2010,08,14,02,57,16.20
2010,08,14,02,58,16.20
2010,08,14,02,59,16.30
2010,08,14,03,00,16.30
2010,08,14,03,01,16.30
2010,08,14,03,02,16.30
2010,08,14,03,03,16.30
2010,08,14,03,04,16.30
2010,08,14,03,05,16.30
2010,08,14,03,06,16.30
2010,08,14,03,07,16.30
2010,08,14,03,08,16.40
2010,08,14,03,09,16.40
2010,08,14,03,10,16.50
2010,08,14,03,11,16.50
2010,08,14,03,12,16.60
2010,08,14,03,13,16.60
2010,08,14,03,14,16.60
2010,08,14,03,15,16.70
2010,08,14,03,16,16.70
2010,08,14,03,17,16.70
2010,08,14,03,18,16.80
2010,08,14,03,19,16.80
2010,08,14,03,20,16.80
2010,08,14,03,21,16.90
2010,08,14,03,22,17.00
2010,08,14,03,23,17.00
2010,08,14,03,24,17.10
2010,08,14,03,25,17.10
2010,08,14,03,26,17.10
2010,08,14,03,27,17.10
2010,08,14,03,28,17.10
2010,08,14,03,29,17.10
2010,08,14,03,30,17.00
2010,08,14,03,31,17.00
2010,08,14,03,32,17.00
2010,08,14,03,33,17.00
2010,08,14,03,34,17.00
2010,08,14,03,35,17.00
2010,08,14,03,36,17.00
2010,08,14,03,37,17.10
2010,08,14,03,38,17.10
2010,08,14,03,39,17.10
2010,08,14,03,40,17.00
2010,08,14,03,41,17.00
2010,08,14,03,42,17.00
2010,08,14,03,43,17.10
2010,08,14,03,44,17.10
2010,08,14,03,45,17.10
2010,08,14,03,46,17.10
2010,08,14,03,47,17.10
2010,08,14,03,48,17.10
2010,08,14,03,49,17.10
2010,08,14,03,50,17.10
2010,08,14,03,51,17.10
2010,08,14,03,52,17.10
2010,08,14,03,53,17.10
2010,08,14,03,54,17.00
2010,08,14,03,55,17.00
2010,08,14,03,56,17.00
2010,08,14,03,57,16.90
2010,08,14,03,58,16.90
2010,08,14,03,59,16.80
2010,08,14,04,00,16.80
2010,08,14,04,01,16.80
2010,08,14,04,02,16.70
2010,08,14,04,03,16.70
2010,08,14,04,04,16.60
2010,08,14,04,05,16.60
2010,08,14,04,06,16.60
2010,08,14,04,07,16.50
2010,08,14,04,08,16.50
2010,08,14,04,09,16.40
2010,08,14,04,10,16.40
2010,08,14,04,11,16.40
2010,08,14,04,12,16.30
2010,08,14,04,13,16.30
2010,08,14,04,14,16.30
2010,08,14,04,15,16.20
2010,08,14,04,16,16.20
2010,08,14,04,17,16.20
2010,08,14,04,18,16.20
2010,08,14,04,19,16.20
2010,08,14,04,20,16.10
2010,08,14,04,21,16.10
2010,08,14,04,22,16.10
2010,08,14,04,23,16.00
2010,08,14,04,24,16.00
2010,08,14,04,25,16.00
2010,08,14,04,26,16.10
2010,08,14,04,27,16.10
2010,08,14,04,28,16.20
2010,08,14,04,29,16.20
2010,08,14,04,30,16.20
2010,08,14,04,31,16.30
2010,08,14,04,32,16.30
2010,08,14,04,33,16.30
2010,08,14,04,34,16.30
2010,08,14,04,35,16.40
2010,08,14,04,36,16.40
2010,08,14,04,37,16.40
2010,08,14,04,38,16.30
2010,08,14,04,39,16.30
2010,08,14,04,40,16.30
2010,08,14,04,41,16.30
2010,08,14,04,42,16.20
2010,08,14,04,43,16.20
2010,08,14,04,44,16.20
2010,08,14,04,45,16.20
2010,08,14,04,46,16.20
2010,08,14,04,47,16.20
2010,08,14,04,48,16.20
2010,08,14,04,49,16.20
2010,08,14,04,50,16.20
2010,08,14,04,51,16.10
2010,08,14,04,52,16.10
2010,08,14,04,53,16.10
2010,08,14,04,54,16.10
2010,08,14,04,55,16.10
2010,08,14,04,56,16.00
2010,08,14,04,57,16.00
2010,08,14,04,58,16.00
2010,08,14,04,59,16.00
2010,08,14,05,00,15.90
2010,08,14,05,01,15.90
2010,08,14,05,02,15.90
2010,08,14,05,03,15.90
2010,08,14,05,04,15.90
2010,08,14,05,05,15.80
2010,08,14,05,06,15.80
2010,08,14,05,07,15.80
2010,08,14,05,08,15.80
2010,08,14,05,09,15.80
2010,08,14,05,10,15.80
2010,08,14,05,11,15.80
2010,08,14,05,12,15.70
2010,08,14,05,13,15.70
2010,08,14,05,14,15.70
2010,08,14,05,15,15.70
2010,08,14,05,16,15.60
2010,08,14,05,17,15.60
2010,08,14,05,18,15.60
2010,08,14,05,19,15.60
2010,08,14,05,20,15.70
2010,08,14,05,21,15.70
2010,08,14,05,22,15.70
2010,08,14,05,23,15.70
2010,08,14,05,24,15.70
2010,08,14,05,25,15.70
2010,08,14,05,26,15.70
2010,08,14,05,27,15.70
2010,08,14,05,28,15.60
2010,08,14,05,29,15.60
2010,08,14,05,30,15.60
2010,08,14,05,31,15.50
2010,08,14,05,32,15.40
2010,08,14,05,33,15.40
2010,08,14,05,34,15.40
2010,08,14,05,35,15.40
2010,08,14,05,36,15.40
2010,08,14,05,37,15.30
2010,08,14,05,38,15.30
2010,08,14,05,39,15.30
2010,08,14,05,40,15.30
2010,08,14,05,41,15.30
2010,08,14,05,42,15.20
2010,08,14,05,43,15.30
2010,08,14,05,44,15.30
2010,08,14,05,45,15.30
2010,08,14,05,46,15.40
2010,08,14,05,47,15.40
2010,08,14,05,48,15.40
2010,08,14,05,49,15.40
2010,08,14,05,50,15.40
2010,08,14,05,51,15.40
2010,08,14,05,52,15.40
2010,08,14,05,53,15.40
2010,08,14,05,54,15.40
2010,08,14,05,55,15.40
2010,08,14,05,56,15.40
2010,08,14,05,57,15.30
2010,08,14,05,58,15.30
2010,08,14,05,59,15.30
2010,08,14,06,00,15.30
2010,08,14,06,01,15.30
2010,08,14,06,02,15.30
2010,08,14,06,03,15.30
2010,08,14,06,04,15.30
2010,08,14,06,05,15.30
2010,08,14,06,06,15.30
2010,08,14,06,07,15.30
2010,08,14,06,08,15.30
2010,08,14,06,09,15.30
2010,08,14,06,10,15.30
2010,08,14,06,11,15.30
2010,08,14,06,12,15.30
2010,08,14,06,13,15.30
2010,08,14,06,14,15.30
2010,08,14,06,15,15.30
2010,08,14,06,16,15.30
2010,08,14,06,17,15.30
2010,08,14,06,18,15.30
2010,08,14,06,19,15.30
2010,08,14,06,20,15.30
2010,08,14,06,21,15.30
2010,08,14,06,22,15.40
2010,08,14,06,23,15.40
2010,08,14,06,24,15.40
2010,08,14,06,25,15.50
2010,08,14,06,26,15.60
2010,08,14,06,27,15.60
2010,08,14,06,28,15.60
2010,08,14,06,29,15.60
2010,08,14,06,30,15.70
2010,08,14,06,31,15.70
2010,08,14,06,32,15.70
2010,08,14,06,33,15.80
2010,08,14,06,34,15.80
2010,08,14,06,35,15.80
2010,08,14,06,36,15.80
2010,08,14,06,37,15.80
2010,08,14,06,38,15.80
2010,08,14,06,39,15.80
2010,08,14,06,40,15.80
2010,08,14,06,41,15.80
2010,08,14,06,42,15.80
2010,08,14,06,43,15.80
2010,08,14,06,44,15.80
2010,08,14,06,45,15.90
2010,08,14,06,46,15.80
2010,08,14,06,47,15.90
2010,08,14,06,48,15.90
2010,08,14,06,49,15.90
2010,08,14,06,50,15.90
2010,08,14,06,51,15.90
2010,08,14,06,52,16.00
2010,08,14,06,53,16.00
2010,08,14,06,54,16.10
2010,08,14,06,55,16.20
2010,08,14,06,56,16.20
2010,08,14,06,57,16.30
2010,08,14,06,58,16.30
2010,08,14,06,59,16.40
2010,08,14,07,00,16.40
2010,08,14,07,01,16.40
2010,08,14,07,02,16.40
2010,08,14,07,03,16.50
2010,08,14,07,04,16.50
2010,08,14,07,05,16.50
2010,08,14,07,06,16.50
2010,08,14,07,07,16.50
2010,08,14,07,08,16.50
2010,08,14,07,09,16.50
2010,08,14,07,10,16.50
2010,08,14,07,11,16.50
2010,08,14,07,12,16.50
2010,08,14,07,13,16.50
2010,08,14,07,14,16.50
2010,08,14,07,15,16.50
2010,08,14,07,16,16.50
2010,08,14,07,17,16.50
2010,08,14,07,18,16.50
2010,08,14,07,19,16.50
2010,08,14,07,20,16.50
2010,08,14,07,21,16.60
2010,08,14,07,22,16.60
2010,08,14,07,23,16.60
2010,08,14,07,24,16.70
2010,08,14,07,25,16.70
2010,08,14,07,26,16.80
2010,08,14,07,27,16.80
2010,08,14,07,28,16.80
2010,08,14,07,29,16.90
2010,08,14,07,30,17.00
2010,08,14,07,31,17.00
2010,08,14,07,32,17.10
2010,08,14,07,33,17.10
2010,08,14,07,34,17.10
2010,08,14,07,35,17.20
2010,08,14,07,36,17.20
2010,08,14,07,37,17.30
2010,08,14,07,38,17.30
2010,08,14,07,39,17.40
2010,08,14,07,40,17.40
2010,08,14,07,41,17.50
2010,08,14,07,42,17.50
2010,08,14,07,43,17.60
2010,08,14,07,44,17.70
2010,08,14,07,45,17.70
2010,08,14,07,46,17.80
2010,08,14,07,47,17.80
2010,08,14,07,48,17.90
2010,08,14,07,49,17.90
2010,08,14,07,50,18.00
2010,08,14,07,51,18.10
2010,08,14,07,52,18.10
2010,08,14,07,53,18.20
2010,08,14,07,54,18.30
2010,08,14,07,55,18.30
2010,08,14,07,56,18.40
2010,08,14,07,57,18.40
2010,08,14,07,58,18.50
2010,08,14,07,59,18.50
2010,08,14,08,00,18.60
2010,08,14,08,01,18.60
2010,08,14,08,02,18.70
2010,08,14,08,03,18.70
2010,08,14,08,04,18.80
2010,08,14,08,05,18.80
2010,08,14,08,06,18.90
2010,08,14,08,07,18.90
2010,08,14,08,08,19.00
2010,08,14,08,09,19.10
2010,08,14,08,10,19.10
2010,08,14,08,11,19.20
2010,08,14,08,12,19.20
2010,08,14,08,13,19.30
2010,08,14,08,14,19.30
2010,08,14,08,15,19.40
2010,08,14,08,16,19.40
2010,08,14,08,17,19.50
2010,08,14,08,18,19.60
2010,08,14,08,19,19.60
2010,08,14,08,20,19.70
2010,08,14,08,21,19.70
2010,08,14,08,22,19.80
2010,08,14,08,23,19.80
2010,08,14,08,24,19.90
2010,08,14,08,25,19.90
2010,08,14,08,26,20.00
2010,08,14,08,27,20.10
2010,08,14,08,28,20.20
2010,08,14,08,29,20.20
2010,08,14,08,30,20.30
2010,08,14,08,31,20.40
2010,08,14,08,32,20.40
2010,08,14,08,33,20.50
2010,08,14,08,34,20.60
2010,08,14,08,35,20.70
2010,08,14,08,36,20.70
2010,08,14,08,37,20.80
2010,08,14,08,38,20.90
2010,08,14,08,39,20.90
2010,08,14,08,40,21.00
2010,08,14,08,41,21.00
2010,08,14,08,42,21.10
2010,08,14,08,43,21.10
2010,08,14,08,44,21.20
2010,08,14,08,45,21.30
2010,08,14,08,46,21.30
2010,08,14,08,47,21.40
2010,08,14,08,48,21.50
2010,08,14,08,49,21.50
2010,08,14,08,50,21.60
2010,08,14,08,51,21.70
2010,08,14,08,52,21.80
2010,08,14,08,53,21.90
2010,08,14,08,54,22.00
2010,08,14,08,55,22.10
2010,08,14,08,56,22.30
2010,08,14,08,57,22.40
2010,08,14,08,58,22.60
2010,08,14,08,59,22.80
2010,08,14,09,00,22.90
2010,08,14,09,01,23.10
2010,08,14,09,02,23.20
2010,08,14,09,03,23.40
2010,08,14,09,04,23.50
2010,08,14,09,05,23.60
2010,08,14,09,06,23.70
2010,08,14,09,07,23.80
2010,08,14,09,08,23.90
2010,08,14,09,09,24.10
2010,08,14,09,10,24.20
2010,08,14,09,11,24.30
2010,08,14,09,12,24.40
2010,08,14,09,13,24.50
2010,08,14,09,14,24.60
2010,08,14,09,15,24.70
2010,08,14,09,16,24.80
2010,08,14,09,17,24.90
2010,08,14,09,18,25.10
2010,08,14,09,19,25.20
2010,08,14,09,20,25.30
2010,08,14,09,21,25.40
2010,08,14,09,22,25.50
2010,08,14,09,23,25.60
2010,08,14,09,24,25.70
2010,08,14,09,25,25.80
2010,08,14,09,26,25.80
2010,08,14,09,27,25.90
2010,08,14,09,28,25.90
2010,08,14,09,29,26.00
2010,08,14,09,30,26.10
2010,08,14,09,31,26.10
2010,08,14,09,32,26.20
2010,08,14,09,33,26.20
2010,08,14,09,34,26.30
2010,08,14,09,35,26.30
2010,08,14,09,36,26.30
2010,08,14,09,37,26.30
2010,08,14,09,38,26.30
2010,08,14,09,39,26.30
2010,08,14,09,40,26.30
2010,08,14,09,41,26.30
2010,08,14,09,42,26.20
2010,08,14,09,43,26.20
2010,08,14,09,44,26.20
2010,08,14,09,45,26.20
2010,08,14,09,46,26.20
2010,08,14,09,47,26.30
2010,08,14,09,48,26.30
2010,08,14,09,49,26.40
2010,08,14,09,50,26.40
2010,08,14,09,51,26.50
2010,08,14,09,52,26.50
2010,08,14,09,53,26.60
2010,08,14,09,54,26.70
2010,08,14,09,55,26.70
2010,08,14,09,56,26.80
2010,08,14,09,57,26.90
2010,08,14,09,58,26.90
2010,08,14,09,59,27.00
2010,08,14,10,00,27.00
2010,08,14,10,01,27.10
2010,08,14,10,02,27.10
2010,08,14,10,03,27.20
2010,08,14,10,04,27.20
2010,08,14,10,05,27.20
2010,08,14,10,06,27.30
2010,08,14,10,07,27.30
2010,08,14,10,08,27.40
2010,08,14,10,09,27.40
2010,08,14,10,10,27.40
2010,08,14,10,11,27.40
2010,08,14,10,12,27.50
2010,08,14,10,13,27.50
2010,08,14,10,14,27.50
2010,08,14,10,15,27.60
2010,08,14,10,16,27.60
2010,08,14,10,17,27.60
2010,08,14,10,18,27.60
2010,08,14,10,19,27.70
2010,08,14,10,20,27.70
2010,08,14,10,21,27.70
2010,08,14,10,22,27.70
2010,08,14,10,23,27.70
2010,08,14,10,24,27.70
2010,08,14,10,25,27.80
2010,08,14,10,26,27.80
2010,08,14,10,27,27.90
2010,08,14,10,28,27.90
2010,08,14,10,29,28.00
2010,08,14,10,30,28.00
2010,08,14,10,31,28.10
2010,08,14,10,32,28.10
2010,08,14,10,33,28.20
2010,08,14,10,34,28.20
2010,08,14,10,35,28.30
2010,08,14,10,36,28.30
2010,08,14,10,37,28.40
2010,08,14,10,38,28.40
2010,08,14,10,39,28.40
2010,08,14,10,40,28.50
2010,08,14,10,41,28.50
2010,08,14,10,42,28.50
2010,08,14,10,43,28.50
2010,08,14,10,44,28.50
2010,08,14,10,45,28.50
2010,08,14,10,46,28.50
2010,08,14,10,47,28.50
2010,08,14,10,48,28.50
2010,08,14,10,49,28.50
2010,08,14,10,50,28.50
2010,08,14,10,51,28.50
2010,08,14,10,52,28.50
2010,08,14,10,53,28.40
2010,08,14,10,54,28.40
2010,08,14,10,55,28.40
2010,08,14,10,56,28.30
2010,08,14,10,57,28.30
2010,08,14,10,58,28.30
2010,08,14,10,59,28.30
2010,08,14,11,00,28.30
2010,08,14,11,01,28.30
2010,08,14,11,02,28.30
2010,08,14,11,03,28.30
2010,08,14,11,04,28.30
2010,08,14,11,05,28.30
2010,08,14,11,06,28.30
2010,08,14,11,07,28.30
2010,08,14,11,08,28.30
2010,08,14,11,09,28.30
2010,08,14,11,10,28.30
2010,08,14,11,11,28.30
2010,08,14,11,12,28.30
2010,08,14,11,13,28.30
2010,08,14,11,14,28.20
2010,08,14,11,15,28.20
2010,08,14,11,16,28.30
2010,08,14,11,17,28.30
2010,08,14,11,18,28.30
2010,08,14,11,19,28.30
2010,08,14,11,20,28.30
2010,08,14,11,21,28.30
2010,08,14,11,22,28.40
2010,08,14,11,23,28.40
2010,08,14,11,24,28.40
2010,08,14,11,25,28.40
2010,08,14,11,26,28.50
2010,08,14,11,27,28.50
2010,08,14,11,28,28.60
2010,08,14,11,29,28.60
2010,08,14,11,30,28.70
2010,08,14,11,31,28.70
2010,08,14,11,32,28.70
2010,08,14,11,33,28.80
2010,08,14,11,34,28.80
2010,08,14,11,35,28.80
2010,08,14,11,36,28.80
2010,08,14,11,37,28.70
2010,08,14,11,38,28.70
2010,08,14,11,39,28.70
2010,08,14,11,40,28.80
2010,08,14,11,41,28.80
2010,08,14,11,42,28.80
2010,08,14,11,43,28.80
2010,08,14,11,44,28.90
2010,08,14,11,45,28.90
2010,08,14,11,46,28.90
2010,08,14,11,47,28.90
2010,08,14,11,48,28.90
2010,08,14,11,49,29.00
2010,08,14,11,50,29.00
2010,08,14,11,51,29.00
2010,08,14,11,52,29.10
2010,08,14,11,53,29.10
2010,08,14,11,54,29.20
2010,08,14,11,55,29.20
2010,08,14,11,56,29.20
2010,08,14,11,57,29.20
2010,08,14,11,58,29.20
2010,08,14,11,59,29.20
2010,08,14,12,00,29.20
2010,08,14,12,01,29.20
2010,08,14,12,02,29.10
2010,08,14,12,03,29.10
2010,08,14,12,04,29.00
2010,08,14,12,05,29.00
2010,08,14,12,06,28.90
2010,08,14,12,07,28.90
2010,08,14,12,08,28.90
2010,08,14,12,09,28.90
2010,08,14,12,10,28.90
2010,08,14,12,11,29.00
2010,08,14,12,12,29.00
2010,08,14,12,13,29.10
2010,08,14,12,14,29.10
2010,08,14,12,15,29.10
2010,08,14,12,16,29.10
2010,08,14,12,17,29.10
2010,08,14,12,18,29.10
2010,08,14,12,19,29.10
2010,08,14,12,20,29.20
2010,08,14,12,21,29.20
2010,08,14,12,22,29.20
2010,08,14,12,23,29.20
2010,08,14,12,24,29.20
2010,08,14,12,25,29.20
2010,08,14,12,26,29.20
2010,08,14,12,27,29.20
2010,08,14,12,28,29.20
2010,08,14,12,29,29.20
2010,08,14,12,30,29.20
2010,08,14,12,31,29.30
2010,08,14,12,32,29.30
2010,08,14,12,33,29.30
2010,08,14,12,34,29.40
2010,08,14,12,35,29.40
2010,08,14,12,36,29.40
2010,08,14,12,37,29.40
2010,08,14,12,38,29.40
2010,08,14,12,39,29.40
2010,08,14,12,40,29.40
2010,08,14,12,41,29.40
2010,08,14,12,42,29.40
2010,08,14,12,43,29.40
2010,08,14,12,44,29.50
2010,08,14,12,45,29.50
2010,08,14,12,46,29.60
2010,08,14,12,47,29.60
2010,08,14,12,48,29.60
2010,08,14,12,49,29.60
2010,08,14,12,50,29.50
2010,08,14,12,51,29.50
2010,08,14,12,52,29.50
2010,08,14,12,53,29.50
2010,08,14,12,54,29.60
2010,08,14,12,55,29.60
2010,08,14,12,56,29.50
2010,08,14,12,57,29.50
2010,08,14,12,58,29.50
2010,08,14,12,59,29.60
2010,08,14,13,00,29.60
2010,08,14,13,01,29.60
2010,08,14,13,02,29.60
2010,08,14,13,03,29.60
2010,08,14,13,04,29.60
2010,08,14,13,05,29.60
2010,08,14,13,06,29.60
2010,08,14,13,07,29.60
2010,08,14,13,08,29.60
2010,08,14,13,09,29.70
2010,08,14,13,10,29.70
2010,08,14,13,11,29.70
2010,08,14,13,12,29.60
2010,08,14,13,13,29.60
2010,08,14,13,14,29.60
2010,08,14,13,15,29.60
2010,08,14,13,16,29.60
2010,08,14,13,17,29.60
2010,08,14,13,18,29.60
2010,08,14,13,19,29.60
2010,08,14,13,20,29.50
2010,08,14,13,21,29.50
2010,08,14,13,22,29.40
2010,08,14,13,23,29.40
2010,08,14,13,24,29.30
2010,08,14,13,25,29.40
2010,08,14,13,26,29.40
2010,08,14,13,27,29.40
2010,08,14,13,28,29.40
2010,08,14,13,29,29.40
2010,08,14,13,30,29.40
2010,08,14,13,31,29.40
2010,08,14,13,32,29.40
2010,08,14,13,33,29.40
2010,08,14,13,34,29.40
2010,08,14,13,35,29.40
2010,08,14,13,36,29.30
2010,08,14,13,37,29.40
2010,08,14,13,38,29.40
2010,08,14,13,39,29.40
2010,08,14,13,40,29.40
2010,08,14,13,41,29.50
2010,08,14,13,42,29.50
2010,08,14,13,43,29.50
2010,08,14,13,44,29.60
2010,08,14,13,45,29.60
2010,08,14,13,46,29.60
2010,08,14,13,47,29.50
2010,08,14,13,48,29.50
2010,08,14,13,49,29.50
2010,08,14,13,50,29.60
2010,08,14,13,51,29.70
2010,08,14,13,52,29.70
2010,08,14,13,53,29.70
2010,08,14,13,54,29.80
2010,08,14,13,55,29.80
2010,08,14,13,56,29.80
2010,08,14,13,57,29.90
2010,08,14,13,58,29.90
2010,08,14,13,59,30.00
2010,08,14,14,00,30.00
2010,08,14,14,01,30.10
2010,08,14,14,02,30.10
2010,08,14,14,03,30.10
2010,08,14,14,04,30.00
2010,08,14,14,05,30.00
2010,08,14,14,06,30.10
2010,08,14,14,07,30.10
2010,08,14,14,08,30.10
2010,08,14,14,09,30.10
2010,08,14,14,10,30.10
2010,08,14,14,11,30.10
2010,08,14,14,12,30.10
2010,08,14,14,13,30.10
2010,08,14,14,14,30.00
2010,08,14,14,15,30.00
2010,08,14,14,16,30.00
2010,08,14,14,17,30.00
2010,08,14,14,18,30.00
2010,08,14,14,19,30.00
2010,08,14,14,20,30.00
2010,08,14,14,21,30.00
2010,08,14,14,22,30.00
2010,08,14,14,23,30.00
2010,08,14,14,24,29.90
2010,08,14,14,25,29.90
2010,08,14,14,26,29.90
2010,08,14,14,27,29.90
2010,08,14,14,28,30.00
2010,08,14,14,29,30.00
2010,08,14,14,30,30.00
2010,08,14,14,31,30.00
2010,08,14,14,32,30.00
2010,08,14,14,33,30.10
2010,08,14,14,34,30.10
2010,08,14,14,35,30.10
2010,08,14,14,36,30.20
2010,08,14,14,37,30.20
2010,08,14,14,38,30.20
2010,08,14,14,39,30.20
2010,08,14,14,40,30.20
2010,08,14,14,41,30.20
2010,08,14,14,42,30.20
2010,08,14,14,43,30.20
2010,08,14,14,44,30.20
2010,08,14,14,45,30.20
2010,08,14,14,46,30.30
2010,08,14,14,47,30.20
2010,08,14,14,48,30.20
2010,08,14,14,49,30.20
2010,08,14,14,50,30.20
2010,08,14,14,51,30.20
2010,08,14,14,52,30.20
2010,08,14,14,53,30.30
2010,08,14,14,54,30.30
2010,08,14,14,55,30.30
2010,08,14,14,56,30.30
2010,08,14,14,57,30.30
2010,08,14,14,58,30.30
2010,08,14,14,59,30.40
2010,08,14,15,00,30.40
2010,08,14,15,01,30.40
2010,08,14,15,02,30.50
2010,08,14,15,03,30.50
2010,08,14,15,04,30.60
2010,08,14,15,05,30.60
2010,08,14,15,06,30.60
2010,08,14,15,07,30.60
2010,08,14,15,08,30.60
2010,08,14,15,09,30.60
2010,08,14,15,10,30.70
2010,08,14,15,11,30.70
2010,08,14,15,12,30.70
2010,08,14,15,13,30.70
2010,08,14,15,14,30.70
2010,08,14,15,15,30.80
2010,08,14,15,16,30.80
2010,08,14,15,17,30.80
2010,08,14,15,18,30.90
2010,08,14,15,19,30.90
2010,08,14,15,20,30.90
2010,08,14,15,21,30.90
2010,08,14,15,22,30.90
2010,08,14,15,23,31.00
2010,08,14,15,24,31.00
2010,08,14,15,25,31.00
2010,08,14,15,26,31.00
2010,08,14,15,27,31.00
2010,08,14,15,28,31.00
2010,08,14,15,29,31.00
2010,08,14,15,30,31.00
2010,08,14,15,31,31.00
2010,08,14,15,32,30.90
2010,08,14,15,33,30.90
2010,08,14,15,34,30.90
2010,08,14,15,35,30.90
2010,08,14,15,36,31.00
2010,08,14,15,37,31.00
2010,08,14,15,38,31.00
2010,08,14,15,39,31.00
2010,08,14,15,40,31.00
2010,08,14,15,41,31.00
2010,08,14,15,42,31.00
2010,08,14,15,43,30.90
2010,08,14,15,44,30.90
2010,08,14,15,45,30.90
2010,08,14,15,46,30.90
2010,08,14,15,47,30.90
2010,08,14,15,48,31.00
2010,08,14,15,49,31.00
2010,08,14,15,50,31.00
2010,08,14,15,51,31.10
2010,08,14,15,52,31.10
2010,08,14,15,53,31.10
2010,08,14,15,54,31.20
2010,08,14,15,55,31.20
2010,08,14,15,56,31.20
2010,08,14,15,57,31.30
2010,08,14,15,58,31.30
2010,08,14,15,59,31.30
2010,08,14,16,00,31.30
2010,08,14,16,01,31.30
2010,08,14,16,02,31.30
2010,08,14,16,03,31.30
2010,08,14,16,04,31.30
2010,08,14,16,05,31.30
2010,08,14,16,06,31.30
2010,08,14,16,07,31.30
2010,08,14,16,08,31.30
2010,08,14,16,09,31.30
2010,08,14,16,10,31.30
2010,08,14,16,11,31.30
2010,08,14,16,12,31.30
2010,08,14,16,13,31.30
2010,08,14,16,14,31.40
2010,08,14,16,15,31.40
2010,08,14,16,16,31.40
2010,08,14,16,17,31.40
2010,08,14,16,18,31.50
2010,08,14,16,19,31.50
2010,08,14,16,20,31.60
2010,08,14,16,21,31.60
2010,08,14,16,22,31.70
2010,08,14,16,23,31.70
2010,08,14,16,24,31.70
2010,08,14,16,25,31.70
2010,08,14,16,26,31.70
2010,08,14,16,27,31.80
2010,08,14,16,28,31.80
2010,08,14,16,29,31.70
2010,08,14,16,30,31.70
2010,08,14,16,31,31.80
2010,08,14,16,32,31.80
2010,08,14,16,33,31.80
2010,08,14,16,34,31.80
2010,08,14,16,35,31.80
2010,08,14,16,36,31.90
2010,08,14,16,37,32.00
2010,08,14,16,38,32.00
2010,08,14,16,39,32.10
2010,08,14,16,40,32.10
2010,08,14,16,41,32.10
2010,08,14,16,42,32.10
2010,08,14,16,43,32.10
2010,08,14,16,44,32.10
2010,08,14,16,45,32.10
2010,08,14,16,46,32.10
2010,08,14,16,47,32.00
2010,08,14,16,48,32.00
2010,08,14,16,49,32.00
2010,08,14,16,50,32.00
2010,08,14,16,51,32.00
2010,08,14,16,52,32.00
2010,08,14,16,53,32.00
2010,08,14,16,54,32.00
2010,08,14,16,55,32.00
2010,08,14,16,56,32.10
2010,08,14,16,57,32.10
2010,08,14,16,58,32.10
2010,08,14,16,59,32.10
2010,08,14,17,00,32.10
2010,08,14,17,01,32.10
2010,08,14,17,02,32.10
2010,08,14,17,03,32.10
2010,08,14,17,04,32.10
2010,08,14,17,05,32.10
2010,08,14,17,06,32.00
2010,08,14,17,07,32.00
2010,08,14,17,08,31.90
2010,08,14,17,09,31.90
2010,08,14,17,10,31.90
2010,08,14,17,11,31.90
2010,08,14,17,12,31.90
2010,08,14,17,13,31.90
2010,08,14,17,14,31.90
2010,08,14,17,15,31.90
2010,08,14,17,16,31.90
2010,08,14,17,17,31.80
2010,08,14,17,18,31.80
2010,08,14,17,19,31.80